Track STARLINK-3870 now! 10-day predictions STARLINK-3870 is classified as:
1 52451U 22049A 22185.91667824 -.00413458 00000-0 -27209-1 0 9993 2 52451 53.2173 341.5468 0001314 60.6524 32.0374 15.09224953 1306